Regional Weather Roundup
Issued by NWS New Orleans/Baton Rouge, LA

Home | Current Version | Previous Version | Text Only | Print | Product List | Glossary Off
Versions: 1 2 3 4 5 6 7 8 9 10 11 12 13 14 15 16 17 18 19 20 21 22 23 24 25 26 27 28 29 30 31 32 33 34 35 36 37 38 39 40 41 42 43 44 45 46 47 48 49 50

126
ASUS44 KLIX 240101
RWRLIX
NEW ORLEANS REGIONAL WEATHER ROUNDUP
NATIONAL WEATHER SERVICE NEW ORLEANS LA
800 PM CDT WED APR 23 2014

NOTE: "FAIR" INDICATES FEW OR NO CLOUDS BELOW 12,000 FEET WITH NO
      SIGNIFICANT WEATHER AND/OR OBSTRUCTIONS TO VISIBILITY.
      SKY/WX - SKY CONDITION AND SIGNIFICANT WEATHER.
      TMP - AIR TEMPERATURE.     DP    - DEWPOINT TEMPERATURE.
      RH  - RELATIVE HUMIDITY.   PRES  - PRESSURE.
      HI  - HEAT INDEX.          WCI   - WIND CHILL INDEX.

*  THESE STATIONS ARE NOT NWS OR FAA STATIONS AND ARE NOT UNDER
   NWS QUALITY CONTROL.

LAZ038-040-048-061>063-065>067-069-240200-
SOUTHEAST LOUISIANA

CITY           SKY/WX    TMP DP  RH WIND       PRES   REMARKS
N.O. AUDUBON     N/A     76  64  65 MISG        N/A
N.O. INTL ARPT PTCLDY    74  64  71 S12       29.90R
N.O. LAKEFRONT CLEAR     75  64  68 S14       29.91R
N.O. DOWNTOWN*   N/A     77  61  57 S8        29.92R
SLIDELL        CLEAR     69  60  73 CALM      29.89R
BATON ROUGE    CLEAR     73  58  59 CALM      29.88R
BOOTHVILLE     PTCLDY    73  65  75 S6        29.92R
BELLE CHASSE   PTCLDY    72  63  73 S5        29.91R
BOGALUSA*        N/A     75  59  57 SW5       29.90R
GALLIANO*      CLEAR     72  64  74 S3        29.92R
NEW ROADS*     NOT AVBL
GONZALES*        N/A     72  62  70 CALM      29.88R
HAMMOND*       NOT AVBL
HOUMA*           N/A     73  61  67 S3        29.91R
PORT FOURCHON* CLEAR     73  64  73 SW6       29.94R

$$

MSZ070-080>082-240200-
SOUTHERN MISSISSIPPI

CITY           SKY/WX    TMP DP  RH WIND       PRES   REMARKS
MCCOMB         CLEAR     69  53  56 CALM      29.89S
GULFPORT       CLEAR     75  65  70 CALM      29.90R
BILOXI         NOT AVBL
PASCAGOULA     CLEAR     70  66  87 CALM      29.91R
STENNIS ARPT*  CLEAR     70  63  78 S5        29.90R

$$

COASTAL OBSERVATIONS
LAKE AND NEARSHORE STATIONS

STATION/POSITION TIME  TEMP    WIND        PRES    WAVE
                       AIR SEA DIR/SP/G            HT/PER
                 (UTC) (F)     (DEG/KT/KT) (MB)    (FT/S)
PASCAGOULA       0000   72     230/  5/  7 1012.0
WAVELAND YACHT   0000   73 75  190/  5/  7 1011.6
GRAND ISLE       0000   73 71  210/  5/  6 1013.4
SOUTHWEST PASS   0000   69 61  190/  5/  6 1013.2
NEW CANAL        0000   78 73   80/  2/  3 1012.7
SHELL BEACH      0000   74 71  170/  5/  6 1012.4

OFFSHORE STATIONS

STATION/POSITION TIME  TEMP    WIND        PRES    WAVE
                       AIR SEA DIR/SP/G            HT/PER
                 (UTC) (F)     (DEG/KT/KT) (MB)    (FT/S)
64 S DAUPHIN ISL 0035   70 73  210/  4/  6 1013.2

$$




USA.gov is the U.S. government's official web portal to all federal, state and local government web resources and services.